| time (UTC) | temp C | wind direction | speed KPH | gust KPH | rain 1hr cm | rain 24hr cm | rain mn cm | humidity % | barometer mb |
| 20260506160055 | 16 | 192 | 1.6 | 16.1 | 0.13 | 0.56 | 0.56 | 96 | 1008.3 |
| 20260506155548 | 16 | 196 | 1.6 | 16.1 | 0.15 | 0.56 | 0.56 | 96 | 1008.1 |
| 20260506155052 | 16 | 185 | 1.6 | 12.9 | 0.15 | 0.56 | 0.56 | 97 | 1007.9 |
| 20260506154610 | 16 | 190 | 1.6 | 12.9 | 0.18 | 0.56 | 0.56 | 96 | 1007.9 |
| 20260506154051 | 16 | 0 | 1.6 | 12.9 | 0.18 | 0.53 | 0.53 | 96 | 1007.7 |
| 20260506153551 | 16 | 211 | 0.0 | 11.3 | 0.18 | 0.53 | 0.53 | 96 | 1007.9 |
| 20260506153100 | 16 | 0 | 0.0 | 11.3 | 0.18 | 0.51 | 0.51 | 96 | 1008.1 |
| 20260506152552 | 16 | 0 | 1.6 | 11.3 | 0.18 | 0.51 | 0.51 | 96 | 1008.5 |
| 20260506152052 | 16 | 163 | 1.6 | 6.4 | 0.20 | 0.51 | 0.51 | 96 | 1008.9 |
| 20260506151558 | 15 | 183 | 0.0 | 4.8 | 0.18 | 0.48 | 0.48 | 96 | 1009.0 |
| 20260506151051 | 15 | 192 | 0.0 | 11.3 | 0.15 | 0.46 | 0.46 | 96 | 1009.0 |
| 20260506150551 | 15 | 234 | 0.0 | 11.3 | 0.18 | 0.46 | 0.46 | 96 | 1009.1 |
| 20260506150054 | 15 | 0 | 1.6 | 11.3 | 0.20 | 0.43 | 0.43 | 96 | 1009.1 |
| 20260506145554 | 15 | 199 | 1.6 | 11.3 | 0.20 | 0.41 | 0.41 | 95 | 1009.1 |
| 20260506145052 | 15 | 202 | 0.0 | 9.7 | 0.23 | 0.41 | 0.41 | 95 | 1009.3 |
| 20260506144602 | 16 | 233 | 1.6 | 12.9 | 0.23 | 0.38 | 0.38 | 95 | 1009.4 |
| 20260506144052 | 16 | 232 | 1.6 | 12.9 | 0.23 | 0.36 | 0.36 | 95 | 1009.1 |
| 20260506143552 | 16 | 0 | 1.6 | 11.3 | 0.25 | 0.36 | 0.36 | 95 | 1008.9 |
| 20260506143056 | 16 | 0 | 1.6 | 11.3 | 0.23 | 0.33 | 0.33 | 95 | 1008.8 |
| 20260506142552 | 16 | 0 | 1.6 | 17.7 | 0.25 | 0.33 | 0.33 | 95 | 1008.8 |
| 20260506142051 | 16 | 0 | 1.6 | 17.7 | 0.23 | 0.30 | 0.30 | 95 | 1008.8 |
| 20260506141602 | 16 | 180 | 1.6 | 16.1 | 0.23 | 0.30 | 0.30 | 94 | 1008.7 |
| 20260506141054 | 16 | 195 | 1.6 | 12.9 | 0.23 | 0.30 | 0.30 | 94 | 1008.8 |
| 20260506140551 | 16 | 210 | 0.0 | 12.9 | 0.23 | 0.28 | 0.28 | 93 | 1008.7 |
| 20260506140112 | 16 | 218 | 0.0 | 4.8 | 0.18 | 0.23 | 0.23 | 93 | 1008.7 |
| 20260506135552 | 16 | 206 | 0.0 | 11.3 | 0.15 | 0.20 | 0.20 | 92 | 1008.8 |
| 20260506135051 | 16 | 173 | 0.0 | 12.9 | 0.13 | 0.15 | 0.15 | 91 | 1008.8 |
| 20260506134557 | 16 | 194 | 0.0 | 12.9 | 0.13 | 0.15 | 0.15 | 91 | 1008.8 |
| 20260506134053 | 16 | 221 | 1.6 | 12.9 | 0.10 | 0.13 | 0.13 | 91 | 1008.9 |
| 20260506133551 | 16 | 198 | 1.6 | 11.3 | 0.08 | 0.10 | 0.10 | 90 | 1008.8 |
| 20260506133102 | 16 | 232 | 0.0 | 8.0 | 0.08 | 0.10 | 0.10 | 90 | 1008.8 |
| 20260506132550 | 16 | 155 | 0.0 | 6.4 | 0.08 | 0.08 | 0.08 | 90 | 1008.8 |
| 20260506132052 | 16 | 0 | 0.0 | 3.2 | 0.08 | 0.08 | 0.08 | 89 | 1008.8 |
| 20260506131555 | 16 | 0 | 0.0 | 4.8 | 0.08 | 0.08 | 0.08 | 89 | 1008.7 |
| 20260506131054 | 16 | 0 | 0.0 | 4.8 | 0.08 | 0.08 | 0.08 | 89 | 1008.8 |
| 20260506130552 | 16 | 0 | 0.0 | 9.7 | 0.05 | 0.05 | 0.05 | 87 | 1008.8 |
| 20260506130053 | 16 | 0 | 0.0 | 9.7 | 0.05 | 0.05 | 0.05 | 87 | 1009.1 |
| 20260506125552 | 17 | 209 | 0.0 | 4.8 | 0.05 | 0.05 | 0.05 | 86 | 1009.0 |
| 20260506125051 | 17 | 0 | 0.0 | 6.4 | 0.03 | 0.03 | 0.03 | 86 | 1009.1 |
| 20260506124556 | 17 | 0 | 0.0 | 6.4 | 0.03 | 0.03 | 0.03 | 85 | 1009.1 |
| 20260506124051 | 17 | 232 | 0.0 | 3.2 | 0.03 | 0.03 | 0.03 | 86 | 1009.2 |
| 20260506123554 | 17 | 0 | 0.0 | 3.2 | 0.03 | 0.03 | 0.03 | 85 | 1009.1 |
| 20260506123052 | 17 | 198 | 0.0 | 3.2 | 0.03 | 0.03 | 0.03 | 84 | 1009.2 |
| 20260506122551 | 17 | 0 | 0.0 | 3.2 | 0.00 | 0.00 | 0.00 | 84 | 1009.3 |
| 20260506122050 | 17 | 226 | 0.0 | 4.8 | 0.00 | 0.00 | 0.00 | 84 | 1009.4 |
| 20260506121553 | 17 | 185 | 0.0 | 4.8 | 0.00 | 0.00 | 0.00 | 83 | 1009.4 |
| 20260506121051 | 17 | 0 | 0.0 | 3.2 | 0.00 | 0.00 | 0.00 | 83 | 1009.3 |
| 20260506120551 | 17 | 0 | 0.0 | 3.2 | 0.00 | 0.00 | 0.00 | 83 | 1009.2 |
| 20260506120052 | 17 | 171 | 0.0 | 8.0 | 0.00 | 0.00 | 0.00 | 83 | 1009.0 |
| 20260506115550 | 17 | 178 | 0.0 | 8.0 | 0.00 | 0.00 | 0.00 | 82 | 1009.0 |
| 20260506115051 | 17 | 0 | 0.0 | 8.0 | 0.00 | 0.00 | 0.00 | 81 | 1008.9 |
| 20260506114558 | 17 | 184 | 0.0 | 6.4 | 0.00 | 0.00 | 0.00 | 80 | 1008.7 |
| 20260506114051 | 17 | 234 | 0.0 | 6.4 | 0.00 | 0.00 | 0.00 | 80 | 1008.8 |
| 20260506113551 | 17 | 0 | 0.0 | 4.8 | 0.00 | 0.00 | 0.00 | 79 | 1008.6 |
| 20260506113059 | 17 | 185 | 0.0 | 4.8 | 0.00 | 0.00 | 0.00 | 80 | 1008.8 |
| 20260506112552 | 18 | 198 | 0.0 | 4.8 | 0.00 | 0.00 | 0.00 | 80 | 1008.8 |
| 20260506112052 | 18 | 217 | 0.0 | 6.4 | 0.00 | 0.00 | 0.00 | 79 | 1008.8 |
| 20260506111552 | 18 | 0 | 0.0 | 11.3 | 0.00 | 0.00 | 0.00 | 79 | 1008.6 |
| 20260506111051 | 18 | 233 | 0.0 | 11.3 | 0.00 | 0.00 | 0.00 | 78 | 1008.5 |
| 20260506110553 | 18 | 214 | 1.6 | 12.9 | 0.00 | 0.00 | 0.00 | 77 | 1008.5 |
| 20260506110058 | 18 | 219 | 1.6 | 12.9 | 0.00 | 0.00 | 0.00 | 77 | 1008.4 |
| 20260506105553 | 18 | 0 | 1.6 | 12.9 | 0.00 | 0.00 | 0.00 | 77 | 1008.3 |
| 20260506105050 | 18 | 0 | 0.0 | 11.3 | 0.00 | 0.00 | 0.00 | 77 | 1008.3 |
| 20260506104558 | 18 | 241 | 0.0 | 16.1 | 0.00 | 0.00 | 0.00 | 77 | 1008.3 |
| 20260506104050 | 18 | 194 | 1.6 | 17.7 | 0.00 | 0.00 | 0.00 | 77 | 1008.3 |
| 20260506103551 | 18 | 169 | 1.6 | 17.7 | 0.00 | 0.00 | 0.00 | 76 | 1008.3 |
| 20260506103100 | 18 | 0 | 1.6 | 16.1 | 0.00 | 0.00 | 0.00 | 76 | 1008.2 |
| 20260506102551 | 18 | 158 | 1.6 | 12.9 | 0.00 | 0.00 | 0.00 | 76 | 1008.1 |
| 20260506102051 | 18 | 245 | 0.0 | 14.5 | 0.00 | 0.00 | 0.00 | 76 | 1008.0 |
| 20260506101556 | 18 | 199 | 0.0 | 14.5 | 0.00 | 0.00 | 0.00 | 76 | 1008.0 |
| 20260506101051 | 18 | 172 | 3.2 | 14.5 | 0.00 | 0.00 | 0.00 | 76 | 1008.0 |
| 20260506100551 | 18 | 205 | 1.6 | 14.5 | 0.00 | 0.00 | 0.00 | 75 | 1007.9 |
| 20260506100056 | 18 | 205 | 1.6 | 16.1 | 0.00 | 0.00 | 0.00 | 75 | 1007.8 |
| 20260506095551 | 18 | 184 | 1.6 | 16.1 | 0.00 | 0.00 | 0.00 | 75 | 1007.9 |
| 20260506095051 | 18 | 186 | 0.0 | 14.5 | 0.00 | 0.00 | 0.00 | 75 | 1007.8 |
| 20260506094555 | 18 | 232 | 0.0 | 8.0 | 0.00 | 0.00 | 0.00 | 75 | 1007.8 |
| 20260506094050 | 18 | 185 | 0.0 | 12.9 | 0.00 | 0.00 | 0.00 | 75 | 1007.8 |
| 20260506093550 | 18 | 0 | 0.0 | 12.9 | 0.00 | 0.00 | 0.00 | 74 | 1007.8 |
| 20260506093052 | 18 | 174 | 0.0 | 6.4 | 0.00 | 0.00 | 0.00 | 74 | 1007.9 |
| 20260506092551 | 18 | 0 | 0.0 | 6.4 | 0.00 | 0.00 | 0.00 | 74 | 1007.9 |
| 20260506092051 | 18 | 0 | 0.0 | 4.8 | 0.00 | 0.00 | 0.00 | 74 | 1007.9 |
| 20260506091554 | 18 | 0 | 0.0 | 17.7 | 0.00 | 0.00 | 0.00 | 73 | 1008.0 |
| 20260506091051 | 18 | 162 | 0.0 | 17.7 | 0.00 | 0.00 | 0.00 | 73 | 1008.1 |
| 20260506090552 | 18 | 0 | 0.0 | 6.4 | 0.00 | 0.00 | 0.00 | 73 | 1008.2 |
| 20260506090051 | 18 | 0 | 0.0 | 6.4 | 0.00 | 0.00 | 0.00 | 73 | 1008.1 |
| 20260506085551 | 18 | 0 | 0.0 | 6.4 | 0.00 | 0.00 | 0.00 | 73 | 1008.1 |
| 20260506085051 | 18 | 164 | 0.0 | 14.5 | 0.00 | 0.00 | 0.00 | 73 | 1008.0 |
| 20260506084554 | 18 | 0 | 0.0 | 14.5 | 0.00 | 0.00 | 0.00 | 72 | 1008.1 |
| 20260506084051 | 18 | 190 | 1.6 | 14.5 | 0.00 | 0.00 | 0.00 | 72 | 1008.1 |
| 20260506083550 | 18 | 217 | 0.0 | 8.0 | 0.00 | 0.00 | 0.00 | 72 | 1008.1 |
| 20260506083055 | 18 | 172 | 0.0 | 8.0 | 0.00 | 0.00 | 0.00 | 72 | 1008.1 |
| 20260506082552 | 18 | 0 | 0.0 | 1.6 | 0.00 | 0.00 | 0.00 | 72 | 1008.0 |
| 20260506082051 | 18 | 0 | 0.0 | 9.7 | 0.00 | 0.00 | 0.00 | 71 | 1008.0 |
| 20260506081557 | 18 | 0 | 0.0 | 9.7 | 0.00 | 0.00 | 0.00 | 71 | 1008.1 |
| 20260506081052 | 18 | 160 | 0.0 | 8.0 | 0.00 | 0.00 | 0.00 | 70 | 1008.0 |
| 20260506080551 | 18 | 0 | 0.0 | 8.0 | 0.00 | 0.00 | 0.00 | 69 | 1008.1 |
| 20260506073054 | 19 | 0 | 0.0 | 4.8 | 0.00 | 0.00 | 0.00 | 67 | 1008.3 |
| 20260506072551 | 19 | 0 | 0.0 | 4.8 | 0.00 | 0.00 | 0.00 | 66 | 1008.3 |
| 20260506072051 | 19 | 0 | 0.0 | 3.2 | 0.00 | 0.00 | 0.00 | 65 | 1008.4 |
| 20260506071554 | 20 | 0 | 0.0 | 4.8 | 0.00 | 0.00 | 0.00 | 65 | 1008.4 |
| 20260506071051 | 20 | 0 | 0.0 | 4.8 | 0.00 | 0.00 | 0.00 | 64 | 1008.3 |
| 20260506070551 | 20 | 0 | 0.0 | 4.8 | 0.00 | 0.00 | 0.00 | 64 | 1008.4 |
| 20260506062050 | 20 | 188 | 0.0 | 11.3 | 0.00 | 0.00 | 0.00 | 62 | 1008.9 |
| 20260506061555 | 20 | 186 | 0.0 | 6.4 | 0.00 | 0.00 | 0.00 | 62 | 1008.9 |
| 20260506061053 | 20 | 226 | 0.0 | 6.4 | 0.00 | 0.00 | 0.00 | 61 | 1009.0 |
| 20260506060550 | 20 | 214 | 0.0 | 6.4 | 0.00 | 0.00 | 0.00 | 61 | 1009.0 |
| 20260506051050 | 20 | 0 | 0.0 | 8.0 | 0.00 | 0.00 | 0.00 | 59 | 1009.4 |
| 20260506050550 | 20 | 200 | 0.0 | 3.2 | 0.00 | 0.00 | 0.00 | 59 | 1009.3 |
| 20260506045054 | 20 | 232 | 1.6 | 14.5 | 0.00 | 0.00 | 0.00 | 59 | 1009.4 |
| 20260506044619 | 20 | 0 | 0.0 | 6.4 | 0.00 | 0.00 | 0.00 | 59 | 1009.5 |
| 20260506044050 | 20 | 182 | 0.0 | 9.7 | 0.00 | 0.00 | 0.00 | 59 | 1009.5 |
| 20260506043550 | 20 | 0 | 0.0 | 12.9 | 0.00 | 0.00 | 0.00 | 59 | 1009.4 |
| 20260506043049 | 20 | 0 | 0.0 | 12.9 | 0.00 | 0.00 | 0.00 | 58 | 1009.4 |
| 20260506042550 | 20 | 169 | 0.0 | 8.0 | 0.00 | 0.00 | 0.00 | 58 | 1009.5 |
| 20260506042047 | 20 | 0 | 1.6 | 8.0 | 0.00 | 0.00 | 0.00 | 58 | 1009.5 |
| 20260506041553 | 20 | 199 | 0.0 | 8.0 | 0.00 | 0.00 | 0.00 | 58 | 1009.5 |
| 20260506041048 | 20 | 0 | 0.0 | 9.7 | 0.00 | 0.00 | 0.00 | 58 | 1009.6 |
| 20260506040550 | 20 | 0 | 0.0 | 9.7 | 0.00 | 0.00 | 0.00 | 58 | 1009.6 |
| 20260506040052 | 20 | 0 | 0.0 | 3.2 | 0.00 | 0.00 | 0.00 | 58 | 1009.6 |
| 20260506035550 | 20 | 209 | 0.0 | 3.2 | 0.00 | 0.00 | 0.00 | 58 | 1009.5 |
| 20260506035050 | 20 | 221 | 0.0 | 3.2 | 0.00 | 0.00 | 0.00 | 58 | 1009.6 |
| 20260506034549 | 20 | 216 | 0.0 | 3.2 | 0.00 | 0.00 | 0.00 | 58 | 1009.5 |
| 20260506034049 | 20 | 0 | 0.0 | 3.2 | 0.00 | 0.00 | 0.00 | 58 | 1009.5 |
| 20260506033548 | 20 | 162 | 0.0 | 3.2 | 0.00 | 0.00 | 0.00 | 58 | 1009.6 |
| 20260506033053 | 20 | 0 | 0.0 | 3.2 | 0.00 | 0.00 | 0.00 | 58 | 1009.5 |
| 20260506032548 | 20 | 0 | 0.0 | 1.6 | 0.00 | 0.00 | 0.00 | 58 | 1009.5 |
| 20260506032048 | 20 | 0 | 0.0 | 1.6 | 0.00 | 0.00 | 0.00 | 58 | 1009.5 |
| 20260506031549 | 20 | 0 | 0.0 | 1.6 | 0.00 | 0.00 | 0.00 | 58 | 1009.6 |
| 20260506031053 | 20 | 208 | 0.0 | 1.6 | 0.00 | 0.00 | 0.00 | 58 | 1009.6 |
| 20260506030552 | 20 | 0 | 0.0 | 1.6 | 0.00 | 0.00 | 0.00 | 57 | 1009.6 |
| 20260506030057 | 20 | 0 | 0.0 | 4.8 | 0.00 | 0.00 | 0.00 | 57 | 1009.6 |
| 20260506025551 | 20 | 0 | 0.0 | 4.8 | 0.00 | 0.00 | 0.00 | 56 | 1009.6 |
| 20260506025050 | 21 | 0 | 0.0 | 4.8 | 0.00 | 0.00 | 0.00 | 56 | 1009.5 |
| 20260506024559 | 21 | 0 | 0.0 | 11.3 | 0.00 | 0.00 | 0.00 | 55 | 1009.6 |
| 20260506024052 | 21 | 0 | 0.0 | 11.3 | 0.00 | 0.00 | 0.00 | 55 | 1009.6 |
| 20260506023550 | 21 | 200 | 0.0 | 3.2 | 0.00 | 0.00 | 0.00 | 55 | 1009.5 |
| 20260506023100 | 21 | 0 | 0.0 | 1.6 | 0.00 | 0.00 | 0.00 | 54 | 1009.5 |
| 20260506022552 | 21 | 0 | 0.0 | 1.6 | 0.00 | 0.00 | 0.00 | 54 | 1009.4 |
| 20260506022052 | 21 | 0 | 0.0 | 1.6 | 0.00 | 0.00 | 0.00 | 53 | 1009.5 |
| 20260506021606 | 21 | 0 | 0.0 | 1.6 | 0.00 | 0.00 | 0.00 | 53 | 1009.5 |
| 20260506021052 | 21 | 159 | 0.0 | 1.6 | 0.00 | 0.00 | 0.00 | 52 | 1009.4 |
| 20260506020551 | 21 | 0 | 0.0 | 3.2 | 0.00 | 0.00 | 0.00 | 51 | 1009.4 |
| 20260506020058 | 22 | 0 | 0.0 | 3.2 | 0.00 | 0.00 | 0.00 | 51 | 1009.4 |
| 20260506015553 | 22 | 207 | 0.0 | 3.2 | 0.00 | 0.00 | 0.00 | 50 | 1009.4 |
| 20260506015053 | 22 | 216 | 0.0 | 9.7 | 0.00 | 0.00 | 0.00 | 50 | 1009.4 |
| 20260506014603 | 22 | 0 | 0.0 | 9.7 | 0.00 | 0.00 | 0.00 | 49 | 1009.4 |
| 20260506014051 | 22 | 0 | 0.0 | 6.4 | 0.00 | 0.00 | 0.00 | 49 | 1009.4 |
| 20260506013552 | 22 | 0 | 0.0 | 6.4 | 0.00 | 0.00 | 0.00 | 49 | 1009.2 |
| 20260506013104 | 22 | 0 | 0.0 | 3.2 | 0.00 | 0.00 | 0.00 | 48 | 1009.2 |
| 20260506012552 | 22 | 0 | 0.0 | 1.6 | 0.00 | 0.00 | 0.00 | 48 | 1009.1 |
| 20260506012053 | 22 | 0 | 0.0 | 1.6 | 0.00 | 0.00 | 0.00 | 47 | 1009.0 |
| 20260506011552 | 23 | 0 | 0.0 | 11.3 | 0.00 | 0.00 | 0.00 | 46 | 1009.0 |
| 20260506011052 | 23 | 0 | 1.6 | 11.3 | 0.00 | 0.00 | 0.00 | 45 | 1008.8 |
| 20260506010552 | 23 | 0 | 0.0 | 9.7 | 0.00 | 0.00 | 0.00 | 45 | 1008.7 |
| 20260506010110 | 23 | 0 | 0.0 | 9.7 | 0.00 | 0.00 | 0.00 | 43 | 1008.6 |
| 20260506005552 | 23 | 117 | 0.0 | 9.7 | 0.00 | 0.00 | 0.00 | 42 | 1008.5 |
| 20260506005051 | 24 | 0 | 0.0 | 9.7 | 0.00 | 0.00 | 0.00 | 41 | 1008.5 |
| 20260506004555 | 24 | 180 | 1.6 | 8.0 | 0.00 | 0.00 | 0.00 | 40 | 1008.5 |
| 20260506004051 | 24 | 0 | 0.0 | 6.4 | 0.00 | 0.00 | 0.00 | 40 | 1008.4 |
| 20260506003552 | 24 | 191 | 0.0 | 11.3 | 0.00 | 0.00 | 0.00 | 39 | 1008.3 |
| 20260506003056 | 24 | 0 | 0.0 | 11.3 | 0.00 | 0.00 | 0.00 | 39 | 1008.3 |
| 20260506002552 | 24 | 0 | 0.0 | 9.7 | 0.00 | 0.00 | 0.00 | 40 | 1008.3 |
| 20260506002052 | 25 | 208 | 0.0 | 4.8 | 0.00 | 0.00 | 0.00 | 40 | 1008.4 |
| 20260506001553 | 25 | 180 | 0.0 | 11.3 | 0.00 | 0.00 | 0.00 | 39 | 1008.3 |
| 20260506001053 | 25 | 217 | 0.0 | 11.3 | 0.00 | 0.00 | 0.00 | 39 | 1008.3 |
| 20260506000553 | 25 | 0 | 1.6 | 17.7 | 0.00 | 0.00 | 0.00 | 39 | 1008.2 |
| 20260506000052 | 25 | 238 | 3.2 | 19.3 | 0.00 | 0.00 | 0.00 | 38 | 1008.1 |
| 20260505235553 | 25 | 0 | 0.0 | 19.3 | 0.00 | 0.00 | 0.00 | 38 | 1008.2 |
| 20260505235055 | 25 | 231 | 1.6 | 19.3 | 0.00 | 0.00 | 0.00 | 38 | 1008.1 |
| 20260505234605 | 25 | 204 | 1.6 | 17.7 | 0.00 | 0.00 | 0.00 | 38 | 1008.1 |
| 20260505234052 | 25 | 234 | 3.2 | 17.7 | 0.00 | 0.00 | 0.00 | 39 | 1008.1 |
| 20260505233555 | 26 | 203 | 1.6 | 12.9 | 0.00 | 0.00 | 0.00 | 38 | 1008.1 |
| 20260505233051 | 26 | 236 | 0.0 | 16.1 | 0.00 | 0.00 | 0.00 | 38 | 1008.0 |
| 20260505232555 | 26 | 225 | 0.0 | 19.3 | 0.00 | 0.00 | 0.00 | 38 | 1008.0 |
| 20260505232052 | 26 | 234 | 1.6 | 19.3 | 0.00 | 0.00 | 0.00 | 37 | 1008.0 |
| 20260505231553 | 26 | 223 | 0.0 | 12.9 | 0.00 | 0.00 | 0.00 | 36 | 1008.0 |
| 20260505231052 | 26 | 0 | 1.6 | 25.7 | 0.00 | 0.00 | 0.00 | 36 | 1007.8 |
| 20260505230552 | 26 | 230 | 4.8 | 25.7 | 0.00 | 0.00 | 0.00 | 36 | 1007.9 |
| 20260505230054 | 26 | 248 | 1.6 | 22.5 | 0.00 | 0.00 | 0.00 | 36 | 1007.8 |
| 20260505225552 | 26 | 0 | 3.2 | 22.5 | 0.00 | 0.00 | 0.00 | 36 | 1007.8 |
| 20260505225052 | 26 | 0 | 0.0 | 14.5 | 0.00 | 0.00 | 0.00 | 36 | 1007.8 |
| 20260505224554 | 26 | 184 | 1.6 | 22.5 | 0.00 | 0.00 | 0.00 | 35 | 1007.8 |
| 20260505224054 | 27 | 0 | 0.0 | 22.5 | 0.00 | 0.00 | 0.00 | 34 | 1007.9 |
| 20260505223553 | 27 | 228 | 1.6 | 19.3 | 0.00 | 0.00 | 0.00 | 34 | 1007.9 |
| 20260505223055 | 27 | 207 | 3.2 | 17.7 | 0.00 | 0.00 | 0.00 | 35 | 1007.9 |
| 20260505222552 | 27 | 201 | 3.2 | 17.7 | 0.00 | 0.00 | 0.00 | 35 | 1008.0 |
| 20260505222053 | 27 | 192 | 0.0 | 19.3 | 0.00 | 0.00 | 0.00 | 35 | 1007.9 |
| 20260505221553 | 27 | 0 | 3.2 | 29.0 | 0.00 | 0.00 | 0.00 | 34 | 1008.0 |
| 20260505221057 | 27 | 205 | 4.8 | 29.0 | 0.00 | 0.00 | 0.00 | 34 | 1007.9 |
| 20260505220552 | 27 | 179 | 6.4 | 29.0 | 0.00 | 0.00 | 0.00 | 35 | 1007.9 |
| 20260505220055 | 27 | 187 | 4.8 | 29.0 | 0.00 | 0.00 | 0.00 | 34 | 1007.9 |
| 20260505215552 | 27 | 176 | 6.4 | 25.7 | 0.00 | 0.00 | 0.00 | 34 | 1007.8 |
| 20260505215056 | 27 | 219 | 6.4 | 22.5 | 0.00 | 0.00 | 0.00 | 35 | 1007.9 |
| 20260505214609 | 27 | 221 | 1.6 | 24.1 | 0.00 | 0.00 | 0.00 | 36 | 1007.8 |
| 20260505214052 | 27 | 214 | 4.8 | 25.7 | 0.00 | 0.00 | 0.00 | 36 | 1007.8 |
| 20260505213553 | 27 | 207 | 3.2 | 25.7 | 0.00 | 0.00 | 0.00 | 36 | 1007.9 |
| 20260505213101 | 27 | 260 | 11.3 | 30.6 | 0.00 | 0.00 | 0.00 | 36 | 1007.7 |
| 20260505212553 | 27 | 0 | 3.2 | 30.6 | 0.00 | 0.00 | 0.00 | 35 | 1007.8 |
| 20260505212052 | 28 | 236 | 8.0 | 30.6 | 0.00 | 0.00 | 0.00 | 34 | 1007.7 |
| 20260505211556 | 28 | 229 | 6.4 | 30.6 | 0.00 | 0.00 | 0.00 | 35 | 1007.7 |
| 20260505211052 | 28 | 211 | 4.8 | 30.6 | 0.00 | 0.00 | 0.00 | 35 | 1007.6 |
| 20260505210552 | 28 | 0 | 3.2 | 30.6 | 0.00 | 0.00 | 0.00 | 37 | 1007.7 |
| 20260505210059 | 28 | 286 | 8.0 | 29.0 | 0.00 | 0.00 | 0.00 | 36 | 1007.7 |
| 20260505205552 | 28 | 254 | 6.4 | 30.6 | 0.00 | 0.00 | 0.00 | 35 | 1007.7 |
| 20260505205056 | 28 | 244 | 8.0 | 30.6 | 0.00 | 0.00 | 0.00 | 35 | 1007.5 |
| 20260505204605 | 28 | 202 | 1.6 | 25.7 | 0.00 | 0.00 | 0.00 | 36 | 1007.6 |
| 20260505204052 | 28 | 0 | 6.4 | 25.7 | 0.00 | 0.00 | 0.00 | 35 | 1007.6 |
| 20260505203552 | 28 | 297 | 3.2 | 25.7 | 0.00 | 0.00 | 0.00 | 36 | 1007.7 |
| 20260505203059 | 28 | 194 | 3.2 | 25.7 | 0.00 | 0.00 | 0.00 | 36 | 1007.8 |
| 20260505202553 | 28 | 0 | 6.4 | 25.7 | 0.00 | 0.00 | 0.00 | 38 | 1007.7 |
| 20260505202052 | 27 | 223 | 1.6 | 22.5 | 0.00 | 0.00 | 0.00 | 37 | 1007.8 |
| 20260505201558 | 27 | 195 | 6.4 | 27.4 | 0.00 | 0.00 | 0.00 | 36 | 1007.9 |
| 20260505201053 | 28 | 232 | 8.0 | 27.4 | 0.00 | 0.00 | 0.00 | 34 | 1008.0 |
| 20260505200551 | 28 | 214 | 4.8 | 32.2 | 0.00 | 0.00 | 0.00 | 35 | 1007.9 |
| 20260505200106 | 28 | 196 | 6.4 | 35.4 | 0.00 | 0.00 | 0.00 | 35 | 1007.9 |
| 20260505195551 | 28 | 219 | 8.0 | 35.4 | 0.00 | 0.00 | 0.00 | 36 | 1008.0 |
| 20260505195051 | 28 | 222 | 8.0 | 33.8 | 0.00 | 0.00 | 0.00 | 34 | 1008.1 |
| 20260505194605 | 28 | 256 | 9.7 | 35.4 | 0.00 | 0.00 | 0.00 | 35 | 1008.1 |
| 20260505194051 | 28 | 165 | 6.4 | 35.4 | 0.00 | 0.00 | 0.00 | 35 | 1008.2 |
| 20260505193552 | 27 | 0 | 9.7 | 35.4 | 0.00 | 0.00 | 0.00 | 36 | 1008.1 |
| 20260505193057 | 27 | 0 | 4.8 | 30.6 | 0.00 | 0.00 | 0.00 | 35 | 1008.1 |
| 20260505192552 | 28 | 188 | 8.0 | 30.6 | 0.00 | 0.00 | 0.00 | 37 | 1008.1 |
| 20260505192052 | 27 | 256 | 6.4 | 27.4 | 0.00 | 0.00 | 0.00 | 38 | 1008.2 |
| 20260505191556 | 27 | 266 | 4.8 | 32.2 | 0.00 | 0.00 | 0.00 | 35 | 1008.3 |
| 20260505191052 | 27 | 199 | 4.8 | 32.2 | 0.00 | 0.00 | 0.00 | 36 | 1008.3 |
| 20260505190552 | 28 | 220 | 3.2 | 29.0 | 0.00 | 0.00 | 0.00 | 36 | 1008.4 |
| 20260505190056 | 27 | 213 | 3.2 | 38.6 | 0.00 | 0.00 | 0.00 | 37 | 1008.5 |
| 20260505185552 | 27 | 282 | 12.9 | 38.6 | 0.00 | 0.00 | 0.00 | 36 | 1008.5 |
| 20260505185053 | 27 | 213 | 6.4 | 33.8 | 0.00 | 0.00 | 0.00 | 36 | 1008.5 |
| 20260505184557 | 27 | 197 | 12.9 | 29.0 | 0.00 | 0.00 | 0.00 | 38 | 1008.5 |
| 20260505184052 | 27 | 230 | 8.0 | 29.0 | 0.00 | 0.00 | 0.00 | 37 | 1008.7 |
| 20260505183551 | 28 | 223 | 4.8 | 24.1 | 0.00 | 0.00 | 0.00 | 37 | 1008.7 |
| 20260505183057 | 28 | 286 | 3.2 | 19.3 | 0.00 | 0.00 | 0.00 | 39 | 1008.8 |
| 20260505182551 | 28 | 193 | 1.6 | 25.7 | 0.00 | 0.00 | 0.00 | 38 | 1008.7 |
| 20260505182051 | 27 | 236 | 3.2 | 29.0 | 0.00 | 0.00 | 0.00 | 37 | 1008.8 |
| 20260505181553 | 28 | 273 | 4.8 | 29.0 | 0.00 | 0.00 | 0.00 | 39 | 1008.9 |
| 20260505181052 | 28 | 0 | 1.6 | 20.9 | 0.00 | 0.00 | 0.00 | 38 | 1008.9 |
| 20260505180555 | 28 | 169 | 1.6 | 20.9 | 0.00 | 0.00 | 0.00 | 40 | 1008.9 |
| 20260505180108 | 28 | 222 | 1.6 | 25.7 | 0.00 | 0.00 | 0.00 | 41 | 1008.9 |
| 20260505175552 | 27 | 260 | 3.2 | 25.7 | 0.00 | 0.00 | 0.00 | 40 | 1009.0 |
| 20260505175052 | 27 | 270 | 4.8 | 29.0 | 0.00 | 0.00 | 0.00 | 39 | 1009.1 |
| 20260505174603 | 27 | 225 | 3.2 | 29.0 | 0.00 | 0.00 | 0.00 | 40 | 1009.1 |
| 20260505174052 | 27 | 0 | 3.2 | 24.1 | 0.00 | 0.00 | 0.00 | 41 | 1009.2 |
| 20260505173551 | 27 | 269 | 4.8 | 19.3 | 0.00 | 0.00 | 0.00 | 41 | 1009.2 |
| 20260505173051 | 27 | 258 | 3.2 | 19.3 | 0.00 | 0.00 | 0.00 | 39 | 1009.3 |
| 20260505172552 | 27 | 0 | 0.0 | 16.1 | 0.00 | 0.00 | 0.00 | 40 | 1009.4 |
| 20260505172051 | 27 | 0 | 3.2 | 24.1 | 0.00 | 0.00 | 0.00 | 42 | 1009.4 |
| 20260505171551 | 27 | 261 | 3.2 | 24.1 | 0.00 | 0.00 | 0.00 | 45 | 1009.5 |
| 20260505171053 | 27 | 265 | 3.2 | 24.1 | 0.00 | 0.00 | 0.00 | 43 | 1009.5 |
| 20260505170557 | 27 | 0 | 3.2 | 17.7 | 0.00 | 0.00 | 0.00 | 45 | 1009.6 |
| 20260505170053 | 27 | 286 | 0.0 | 17.7 | 0.00 | 0.00 | 0.00 | 44 | 1009.5 |
| 20260505165554 | 26 | 262 | 4.8 | 32.2 | 0.00 | 0.00 | 0.00 | 43 | 1009.8 |
| 20260505165052 | 27 | 272 | 1.6 | 32.2 | 0.00 | 0.00 | 0.00 | 44 | 1009.9 |
| 20260505164552 | 26 | 275 | 3.2 | 19.3 | 0.00 | 0.00 | 0.00 | 44 | 1009.9 |
| 20260505164052 | 26 | 238 | 1.6 | 19.3 | 0.00 | 0.00 | 0.00 | 45 | 1010.0 |
| 20260505163552 | 26 | 284 | 3.2 | 22.5 | 0.00 | 0.00 | 0.00 | 43 | 1010.2 |
| 20260505163054 | 26 | 219 | 3.2 | 22.5 | 0.00 | 0.00 | 0.00 | 45 | 1010.2 |
| 20260505162551 | 26 | 229 | 1.6 | 25.7 | 0.00 | 0.00 | 0.00 | 45 | 1010.3 |
| 20260505162053 | 26 | 296 | 1.6 | 25.7 | 0.00 | 0.00 | 0.00 | 46 | 1010.2 |
| 20260505161604 | 26 | 284 | 3.2 | 25.7 | 0.00 | 0.00 | 0.00 | 45 | 1010.3 |
| 20260505161052 | 26 | 251 | 1.6 | 11.3 | 0.00 | 0.00 | 0.00 | 44 | 1010.3 |
| 20260505160552 | 26 | 323 | 1.6 | 25.7 | 0.00 | 0.00 | 0.00 | 45 | 1010.3 |